GW6343 Weather Reports


Display with metric or nautical units.
time (UTC)temp
F
wind
direction
speed
MPH
gust
MPH
rain 1hr
in
rain 24hr
in
rain mn
in
humidity
%
barometer
mb
20260504183005 79 162 2.0 9.0 0.00 0.00 0.00 38 1017.2
20260504181507 78 228 2.0 11.0 0.00 0.00 0.00 39 1017.2
20260504180013 78 129 2.0 8.0 0.00 0.00 0.00 38 1017.3
20260504174520 77 160 3.0 9.0 0.00 0.00 0.00 38 1017.4
20260504171503 76 165 2.0 7.0 0.00 0.00 0.00 42 1017.2
20260504081509 52 239 0.0 1.0 0.00 0.00 0.00 89 1017.6
20260504044529 56 183 0.0 0.0 0.00 0.00 0.00 82 1018.9
20260504043029 57 183 0.0 0.0 0.00 0.00 0.00 82 1019.1
20260504041518 57 179 0.0 0.0 0.00 0.00 0.00 82 1019.1
20260504040025 57 179 0.0 0.0 0.00 0.00 0.00 81 1019.2
20260504034526 58 179 0.0 0.0 0.00 0.00 0.00 80 1019.2
20260504033027 58 179 0.0 0.0 0.00 0.00 0.00 78 1019.1
20260504031518 59 167 0.0 0.0 0.00 0.00 0.00 77 1019.1
20260504030025 59 167 0.0 0.0 0.00 0.00 0.00 76 1019.1
20260504024525 60 167 0.0 0.0 0.00 0.00 0.00 76 1018.9
20260504023025 60 162 0.0 0.0 0.00 0.00 0.00 75 1018.7
20260504021526 61 161 0.0 0.0 0.00 0.00 0.00 74 1018.5
20260504020019 62 161 0.0 0.0 0.00 0.00 0.00 74 1018.3
20260504014533 62 161 0.0 0.0 0.00 0.00 0.00 73 1018.3
20260504013036 63 155 0.0 0.0 0.00 0.00 0.00 70 1018.2
20260504011526 64 150 0.0 0.0 0.00 0.00 0.00 67 1018.1
20260504010019 66 148 0.0 1.0 0.00 0.00 0.00 64 1017.9
20260504004525 67 311 0.0 0.0 0.00 0.00 0.00 60 1017.8
20260504003024 69 313 0.0 0.0 0.00 0.00 0.00 56 1017.6
20260504001508 70 313 0.0 1.0 0.00 0.00 0.00 51 1017.7
20260504000015 73 356 0.0 1.0 0.00 0.00 0.00 48 1017.6
20260503234521 76 359 0.0 3.0 0.00 0.00 0.00 41 1017.8
20260503233006 78 285 0.0 1.0 0.00 0.00 0.00 37 1017.8
20260503231508 77 269 1.0 3.0 0.00 0.00 0.00 34 1017.8
20260503230011 77 271 1.0 4.0 0.00 0.00 0.00 36 1017.9
20260503224517 78 60 2.0 4.0 0.00 0.00 0.00 34 1017.8
20260503223022 78 289 1.0 3.0 0.00 0.00 0.00 35 1018.0
20260503221508 77 49 2.0 6.0 0.00 0.00 0.00 34 1018.2
20260503220011 78 238 1.0 3.0 0.00 0.00 0.00 36 1018.2
20260503214512 77 215 2.0 6.0 0.00 0.00 0.00 36 1018.5
20260503213018 77 333 2.0 7.0 0.00 0.00 0.00 36 1018.6
20260503211524 78 69 1.0 5.0 0.00 0.00 0.00 36 1018.8
20260503210007 76 58 3.0 10.0 0.00 0.00 0.00 35 1019.1
20260503204512 78 31 2.0 6.0 0.00 0.00 0.00 37 1019.2
20260503203037 77 317 2.0 5.0 0.00 0.00 0.00 36 1019.5
20260503201522 77 356 2.0 10.0 0.00 0.00 0.00 37 1019.7
20260503200023 79 357 1.0 3.0 0.00 0.00 0.00 33 1020.0
20260503194519 76 63 1.0 6.0 0.00 0.00 0.00 34 1020.2
20260503193014 77 37 2.0 6.0 0.00 0.00 0.00 35 1020.5
20260503191520 76 60 2.0 10.0 0.00 0.00 0.00 37 1020.7
20260503190034 76 72 2.0 6.0 0.00 0.00 0.00 34 1020.7